Location: ČR
(50.0000°N, 15.0000°E)
Time: 14:11:30
(UTC+01:00)

ARIANE 6 FM1 Upper Stage - Pass Details

Date: 25 January 2026
Orbit: 522 x 609 km, 62.0° (Epoch: 13 February)

Event Time Altitude Azimuth Distance (km) Brightness Sun altitude
Rises 18:33:22 0° 223° (SW) 2,702 7.0 -17.6°
Reaches altitude 10° 18:35:35 10° 223° (SW) 1,800 6.0 -18.0°
Maximum altitude 18:39:38 87° 133° (SE) 540 2.4 -18.6°
Enters shadow 18:40:51 44° 48° (NE) 748 2.9 -18.8°
